Tracking 34352 objects as of 8-Jun-2026
HD Live streaming from Space Station
objects crossing your sky now

CZ-6A DEB

Track CZ-6A DEB now!
10-day predictions


NORAD ID: 54557
Int'l Code: 2022-151LH
Perigee: 645.9 km
Apogee: 832.3 km
Inclination: 98.6 °
Period: 99.4 minutes
Semi major axis: 7110 km
RCS: Unknown
Launch date: November 11, 2022
Source: People's Republic of China (PRC)
Launch site: Taiyaun Space Center, China (TSC)

Note: This is SATELLITE DEBRIS
Your satellite tracking list
Your tracking list is empty




NASA's NSSDC Master Catalog

Two Line Element Set (TLE):
1 54557U 22151LH  26159.02168265  .00000727  00000-0  18844-3 0  9994
2 54557  98.5792 211.3402 0131079 324.8877  34.3727 14.48082284188162
Source of the keplerian elements: AFSPC